FW2545 Weather Reports


Display with metric or nautical units.
time (UTC)temp
F
wind
direction
speed
MPH
gust
MPH
rain 1hr
in
rain 24hr
in
rain mn
in
humidity
%
barometer
mb
20260510053027 51 212 2.0 4.0 0.00 0.00 0.00 63 1018.7
20260510051529 52 251 3.0 5.0 0.00 0.00 0.00 61 1018.7
20260510050030 54 220 2.0 4.0 0.00 0.00 0.00 61 1018.8
20260510044529 54 203 1.0 5.0 0.00 0.00 0.00 62 1018.8
20260510043033 53 232 0.0 3.0 0.00 0.00 0.00 63 1018.9
20260510041530 55 332 0.0 3.0 0.00 0.00 0.00 62 1018.6
20260510040031 56 67 0.0 0.0 0.00 0.00 0.00 59 1018.4
20260510034528 57 67 0.0 0.0 0.00 0.00 0.00 56 1018.4
20260510033031 59 66 0.0 1.0 0.00 0.00 0.00 51 1018.4
20260510024532 67 19 2.0 6.0 0.00 0.00 0.00 35 1018.1
20260510023029 68 9 4.0 6.0 0.00 0.00 0.00 34 1018.1
20260510021529 71 4 4.0 6.0 0.00 0.00 0.00 32 1018.2
20260510020031 72 19 4.0 7.0 0.00 0.00 0.00 32 1018.2
20260510014530 73 18 5.0 9.0 0.00 0.00 0.00 31 1018.4
20260510013030 74 16 3.0 8.0 0.00 0.00 0.00 32 1018.4
20260510011531 74 24 4.0 8.0 0.00 0.00 0.00 33 1018.5
20260510010030 74 18 3.0 8.0 0.00 0.00 0.00 34 1018.6
20260510003031 75 20 4.0 9.0 0.00 0.00 0.00 32 1018.6
20260510001530 76 18 5.0 12.0 0.00 0.00 0.00 31 1018.8
20260510000146 76 8 5.0 11.0 0.00 0.00 0.00 31 1018.9
20260509234529 77 4 4.0 10.0 0.00 0.00 0.00 31 1019.1
20260509233031 78 9 4.0 11.0 0.00 0.00 0.00 32 1019.3
20260509231531 78 29 4.0 10.0 0.00 0.00 0.00 32 1019.5
20260509230026 78 4 4.0 10.0 0.00 0.00 0.00 32 1019.8
20260509223029 79 13 4.0 11.0 0.00 0.00 0.00 32 1020.2
20260509221532 79 317 3.0 9.0 0.00 0.00 0.00 32 1020.4
20260509220104 78 38 3.0 7.0 0.00 0.00 0.00 33 1020.6
20260509214602 79 9 4.0 13.0 0.00 0.00 0.00 34 1020.8
20260509211559 79 48 3.0 8.0 0.00 0.00 0.00 36 1021.3
20260509210030 77 12 4.0 13.0 0.00 0.00 0.00 37 1021.4
20260509204531 77 13 4.0 11.0 0.00 0.00 0.00 37 1021.6
20260509203030 77 26 2.0 9.0 0.00 0.00 0.00 38 1021.7
20260509201605 77 53 4.0 11.0 0.00 0.00 0.00 40 1022.0
20260509200030 75 23 3.0 7.0 0.00 0.00 0.00 41 1022.3
20260509194528 74 64 3.0 10.0 0.00 0.00 0.00 43 1022.4
20260509193030 73 341 3.0 12.0 0.00 0.00 0.00 45 1022.7
20260509191607 73 15 4.0 9.0 0.00 0.00 0.00 45 1022.8
20260509190030 71 12 3.0 9.0 0.00 0.00 0.00 47 1023.0
20260509184532 69 360 2.0 8.0 0.00 0.00 0.00 51 1023.2
20260509183028 67 360 4.0 10.0 0.00 0.00 0.00 53 1023.3
20260509181532 66 352 3.0 7.0 0.00 0.00 0.00 54 1023.4
20260509180028 64 5 4.0 10.0 0.00 0.00 0.00 55 1023.4
20260509174530 64 351 3.0 8.0 0.00 0.00 0.00 57 1023.5
20260509171530 62 24 3.0 8.0 0.00 0.00 0.00 60 1023.7
20260509170035 61 25 2.0 7.0 0.00 0.00 0.00 62 1023.8
20260509164531 60 11 2.0 10.0 0.00 0.00 0.00 64 1024.0
20260509161547 58 346 2.0 8.0 0.00 0.00 0.00 70 1024.3
20260509154645 54 39 2.0 8.0 0.00 0.00 0.00 81 1024.2
20260509153033 51 65 1.0 4.0 0.00 0.00 0.00 85 1024.2
20260509151538 48 244 0.0 0.0 0.00 0.00 0.00 88 1024.2
20260509150036 46 247 0.0 2.0 0.00 0.00 0.00 89 1024.2
20260509144537 45 247 0.0 2.0 0.00 0.00 0.00 90 1024.2
20260509141532 41 203 0.0 3.0 0.00 0.00 0.00 91 1024.0
20260509140039 39 201 2.0 5.0 0.00 0.00 0.00 91 1023.9
20260509133036 37 202 0.0 2.0 0.00 0.00 0.00 90 1023.5
20260509130055 38 208 1.0 4.0 0.00 0.00 0.00 89 1023.0
20260509123031 38 207 0.0 3.0 0.00 0.00 0.00 89 1023.1
20260509121545 39 198 1.0 6.0 0.00 0.00 0.00 89 1023.2
20260509120040 38 186 2.0 5.0 0.00 0.00 0.00 87 1023.2
20260509114741 39 209 0.0 3.0 0.00 0.00 0.00 87 1023.2
20260509111538 41 206 2.0 4.0 0.00 0.00 0.00 86 1023.3
20260509110047 42 226 2.0 5.0 0.00 0.00 0.00 84 1023.2
20260509103116 43 227 2.0 5.0 0.00 0.00 0.00 84 1023.2
20260509101652 43 202 3.0 5.0 0.00 0.00 0.00 84 1023.4
20260509100050 43 160 2.0 6.0 0.00 0.00 0.00 83 1023.4
20260509094550 43 238 1.0 4.0 0.00 0.00 0.00 83 1023.3
20260509093106 44 282 3.0 6.0 0.00 0.00 0.00 82 1023.3
20260509091554 45 246 1.0 3.0 0.00 0.00 0.00 81 1023.6
20260509090036 45 257 0.0 3.0 0.00 0.00 0.00 80 1023.7
20260509084536 45 216 1.0 4.0 0.00 0.00 0.00 79 1023.9
20260509083202 46 292 1.0 3.0 0.00 0.00 0.00 76 1024.0
20260509081536 47 271 2.0 4.0 0.00 0.00 0.00 74 1024.1
20260509080042 49 235 2.0 7.0 0.00 0.00 0.00 72 1024.2
20260509074533 51 117 1.0 4.0 0.00 0.00 0.00 69 1024.3
20260509073039 52 294 2.0 5.0 0.00 0.00 0.00 69 1024.2
20260509070035 52 249 4.0 10.0 0.00 0.00 0.00 69 1024.0
20260509064536 52 246 3.0 8.0 0.00 0.00 0.00 68 1024.0
20260509063052 53 254 1.0 6.0 0.00 0.00 0.00 65 1024.0
20260509061539 55 50 1.0 5.0 0.00 0.00 0.00 62 1024.0
20260509054530 56 240 9.0 17.0 0.00 0.00 0.00 62 1023.4